When you browse on this site, cookies collect data to enhance your experience and personalize the content and advertising you see.
Visit our Privacy Policy to learn more. By continuing to use the site, you agree to this use of cookies and data.
  • In Hungary
  • List of Countries
  • For 7 days
  • Water Temperature
  • Satellite Maps
  • Weather Map
  • News
  • Weather Widgets
  • user-avatar
    Login

    Hourly Weather Lavumisa

    Today, 13 December, Thursday

    Time Temperature Precipitation Wind Pressure Humidity
    00:00 +22°C° 0 mm 1 mps 746 mmHg 85%
    01:00 +22°C° 0 mm 1 mps 746 mmHg 87%
    02:00 +21°C° 0 mm 1 mps 747 mmHg 88%
    03:00 +21°C° 0 mm 1 mps 747 mmHg 88%
    04:00 +21°C° 0 mm 1 mps 748 mmHg 88%
    05:00 +21°C° 0 mm 1 mps 748 mmHg 88%
    06:00 +23°C° 0 mm 1 mps 749 mmHg 82%
    07:00 +24°C° 0 mm 2 mps 749 mmHg 77%
    08:00 +26°C° 0 mm 2 mps 750 mmHg 72%
    09:00 +27°C° 0 mm 2 mps 750 mmHg 66%
    10:00 +29°C° 0 mm 2 mps 750 mmHg 61%
    11:00 +31°C° 0 mm 2 mps 749 mmHg 55%
    12:00 +31°C° 0 mm 2 mps 749 mmHg 53%
    13:00 +32°C° 0 mm 2 mps 749 mmHg 51%
    14:00 +33°C° 0 mm 3 mps 748 mmHg 50%
    15:00 +33°C° 0 mm 3 mps 748 mmHg 53%
    16:00 +31°C° 0 mm 3 mps 748 mmHg 56%
    17:00 +30°C° 0 mm 4 mps 748 mmHg 59%
    18:00 +28°C° 0 mm 3 mps 748 mmHg 69%
    19:00 +26°C° 0 mm 2 mps 749 mmHg 78%
    20:00 +24°C° 0 mm 1 mps 749 mmHg 87%
    21:00 +24°C° 0.1 mm 1 mps 750 mmHg 89%
    22:00 +24°C° 0.1 mm 1 mps 750 mmHg 91%
    23:00 +24°C° 0.1 mm 1 mps 751 mmHg 93%

    Tomorrow, 14 December, Friday

    Time Temperature Precipitation Wind Pressure Humidity
    00:00 +24°C° 0.2 mm 1 mps 751 mmHg 93%
    01:00 +24°C° 0.2 mm 1 mps 751 mmHg 94%
    02:00 +23°C° 0.2 mm 1 mps 751 mmHg 94%
    03:00 +23°C° 0.1 mm 1 mps 751 mmHg 94%
    04:00 +23°C° 0.1 mm 1 mps 751 mmHg 94%
    05:00 +23°C° 0.1 mm 1 mps 751 mmHg 94%
    06:00 +24°C° 0 mm 1 mps 751 mmHg 87%
    07:00 +26°C° 0 mm 1 mps 752 mmHg 81%
    08:00 +27°C° 0 mm 1 mps 752 mmHg 75%
    09:00 +29°C° 0 mm 1 mps 752 mmHg 67%
    10:00 +31°C° 0 mm 1 mps 752 mmHg 58%
    11:00 +33°C° 0 mm 1 mps 751 mmHg 50%
    12:00 +34°C° 0 mm 2 mps 751 mmHg 50%
    13:00 +34°C° 0 mm 2 mps 750 mmHg 50%
    14:00 +34°C° 0 mm 2 mps 749 mmHg 49%
    15:00 +34°C° 0 mm 3 mps 749 mmHg 51%
    16:00 +33°C° 0 mm 3 mps 748 mmHg 52%
    17:00 +33°C° 0 mm 4 mps 748 mmHg 53%
    18:00 +30°C° 0 mm 3 mps 748 mmHg 63%
    19:00 +27°C° 0 mm 2 mps 749 mmHg 72%
    20:00 +25°C° 0 mm 2 mps 749 mmHg 81%
    21:00 +25°C° 0 mm 1 mps 750 mmHg 84%
    22:00 +24°C° 0 mm 1 mps 750 mmHg 86%
    23:00 +22°C° 0 mm 0 mps 750 mmHg 88%

    Day after tomorrow, 15 December, Saturday

    Time Temperature Precipitation Wind Pressure Humidity
    00:00 +24°C° 0 mm 1 mps 750 mmHg 89%
    01:00 +23°C° 0 mm 1 mps 749 mmHg 90%
    02:00 +23°C° 0 mm 1 mps 749 mmHg 91%
    03:00 +23°C° 0 mm 1 mps 749 mmHg 90%
    04:00 +23°C° 0 mm 1 mps 749 mmHg 90%
    05:00 +23°C° 0 mm 1 mps 749 mmHg 89%
    06:00 +25°C° 0 mm 2 mps 749 mmHg 83%
    07:00 +26°C° 0 mm 2 mps 749 mmHg 77%
    08:00 +27°C° 0 mm 2 mps 749 mmHg 70%
    09:00 +30°C° 0 mm 2 mps 748 mmHg 62%
    10:00 +32°C° 0 mm 2 mps 748 mmHg 53%
    11:00 +36°C° 0 mm 2 mps 748 mmHg 45%
    12:00 +37°C° 0 mm 3 mps 747 mmHg 42%
    13:00 +38°C° 0 mm 3 mps 746 mmHg 39%
    14:00 +39°C° 0 mm 3 mps 746 mmHg 37%
    15:00 +38°C° 0 mm 3 mps 746 mmHg 40%
    16:00 +37°C° 0 mm 4 mps 745 mmHg 43%
    17:00 +36°C° 0 mm 4 mps 745 mmHg 46%
    18:00 +33°C° 0.2 mm 3 mps 746 mmHg 56%
    19:00 +29°C° 0.2 mm 2 mps 747 mmHg 67%
    20:00 +26°C° 0.2 mm 1 mps 748 mmHg 77%
    21:00 +26°C° 0.1 mm 1 mps 748 mmHg 80%
    22:00 +26°C° 0.1 mm 1 mps 749 mmHg 83%
    23:00 +25°C° 0.1 mm 1 mps 749 mmHg 85%

    16 December, Sunday

    Time Temperature Precipitation Wind Pressure Humidity
    00:00 +25°C° 0 mm 1 mps 749 mmHg 87%
    01:00 +25°C° 0 mm 1 mps 749 mmHg 89%
    02:00 +22°C° 0 mm 0 mps 748 mmHg 91%
    03:00 +22°C° 0 mm 0 mps 748 mmHg 93%
    04:00 +21°C° 0 mm 0 mps 749 mmHg 95%
    05:00 +21°C° 0 mm 0 mps 749 mmHg 97%
    06:00 +25°C° 0 mm 1 mps 749 mmHg 88%
    07:00 +27°C° 0 mm 1 mps 749 mmHg 79%
    08:00 +29°C° 0 mm 1 mps 749 mmHg 70%
    09:00 +31°C° 0 mm 1 mps 749 mmHg 61%
    10:00 +34°C° 0 mm 2 mps 748 mmHg 52%
    11:00 +37°C° 0 mm 2 mps 748 mmHg 43%
    12:00 +38°C° 0 mm 3 mps 747 mmHg 39%
    13:00 +39°C° 0 mm 3 mps 746 mmHg 35%
    14:00 +40°C° 0 mm 3 mps 745 mmHg 30%
    15:00 +40°C° 0 mm 4 mps 745 mmHg 33%
    16:00 +38°C° 0 mm 4 mps 745 mmHg 35%
    17:00 +37°C° 0 mm 4 mps 744 mmHg 38%
    18:00 +34°C° 0 mm 3 mps 745 mmHg 48%
    19:00 +30°C° 0 mm 2 mps 746 mmHg 59%
    20:00 +27°C° 0 mm 2 mps 746 mmHg 69%
    21:00 +26°C° 0 mm 1 mps 747 mmHg 74%
    22:00 +26°C° 0 mm 1 mps 747 mmHg 79%
    23:00 +25°C° 0 mm 1 mps 748 mmHg 84%

    17 December, Monday

    Time Temperature Precipitation Wind Pressure Humidity
    00:00 +25°C° 0 mm 1 mps 747 mmHg 85%
    01:00 +25°C° 0 mm 1 mps 747 mmHg 86%
    02:00 +25°C° 0 mm 2 mps 747 mmHg 86%
    03:00 +24°C° 0 mm 1 mps 747 mmHg 87%
    04:00 +24°C° 0 mm 1 mps 747 mmHg 88%
    05:00 +24°C° 0 mm 1 mps 747 mmHg 88%
    06:00 +26°C° 0 mm 1 mps 747 mmHg 79%
    07:00 +28°C° 0 mm 1 mps 748 mmHg 69%
    08:00 +31°C° 0 mm 2 mps 748 mmHg 59%
    09:00 +34°C° 0 mm 2 mps 748 mmHg 51%
    10:00 +37°C° 0 mm 2 mps 747 mmHg 42%
    11:00 +39°C° 0 mm 3 mps 747 mmHg 33%
    12:00 +40°C° 0 mm 3 mps 746 mmHg 29%
    13:00 +42°C° 0 mm 3 mps 745 mmHg 26%
    14:00 +43°C° 0 mm 4 mps 745 mmHg 22%
    15:00 +42°C° 0 mm 4 mps 745 mmHg 25%
    16:00 +41°C° 0 mm 4 mps 744 mmHg 28%
    17:00 +40°C° 0 mm 5 mps 744 mmHg 31%
    18:00 +36°C° 0 mm 3 mps 745 mmHg 41%
    19:00 +31°C° 0 mm 2 mps 745 mmHg 52%
    20:00 +28°C° 0 mm 1 mps 746 mmHg 63%
    21:00 +27°C° 0 mm 1 mps 746 mmHg 68%
    22:00 +27°C° 0 mm 1 mps 746 mmHg 72%
    23:00 +26°C° 0 mm 1 mps 747 mmHg 77%

    18 December, Tuesday

    Time Temperature Precipitation Wind Pressure Humidity
    00:00 +26°C° 0 mm 1 mps 746 mmHg 79%
    01:00 +25°C° 0 mm 1 mps 746 mmHg 82%
    02:00 +25°C° 0 mm 1 mps 746 mmHg 84%
    03:00 +25°C° 0 mm 1 mps 746 mmHg 87%
    04:00 +24°C° 0 mm 1 mps 746 mmHg 89%
    05:00 +24°C° 0 mm 1 mps 747 mmHg 91%
    06:00 +26°C° 0 mm 1 mps 747 mmHg 81%
    07:00 +28°C° 0 mm 1 mps 747 mmHg 71%
    08:00 +31°C° 0 mm 2 mps 747 mmHg 61%
    09:00 +34°C° 0 mm 3 mps 746 mmHg 52%
    10:00 +37°C° 0 mm 3 mps 745 mmHg 43%
    11:00 +40°C° 0 mm 4 mps 745 mmHg 33%
    12:00 +42°C° 0 mm 4 mps 744 mmHg 29%
    13:00 +43°C° 0 mm 5 mps 743 mmHg 25%
    14:00 +45°C° 0 mm 5 mps 742 mmHg 21%
    15:00 +45°C° 0 mm 5 mps 741 mmHg 22%
    16:00 +43°C° 0 mm 5 mps 741 mmHg 23%
    17:00 +42°C° 0 mm 5 mps 741 mmHg 23%
    18:00 +38°C° 0 mm 4 mps 742 mmHg 31%
    19:00 +35°C° 0 mm 3 mps 742 mmHg 38%
    20:00 +31°C° 0 mm 2 mps 743 mmHg 45%
    21:00 +30°C° 0 mm 2 mps 743 mmHg 53%
    22:00 +29°C° 0 mm 2 mps 744 mmHg 60%
    23:00 +28°C° 0 mm 2 mps 744 mmHg 68%
    Show more